2020-03-25 10:19:54 r, 00.00m,0000563011Hz,0000000000c,0000000.000s, 015.4C,00002195
2020-03-25 10:29:54 r, 00.00m,0000562956Hz,0000000000c,0000000.000s, 015.7C,00002195
2020-03-25 10:39:54 r, 00.00m,0000563105Hz,0000000000c,0000000.000s, 016.4C,00002195
2020-03-25 10:49:55 r, 00.00m,0000563314Hz,0000000000c,0000000.000s, 018.0C,00002195
2020-03-25 10:59:54 r, 00.00m,0000563460Hz,0000000000c,0000000.000s, 018.6C,00002195
2020-03-25 11:09:54 r, 00.00m,0000563457Hz,0000000000c,0000000.000s, 019.6C,00002195
2020-03-25 11:19:55 r, 00.00m,0000563675Hz,0000000000c,0000000.000s, 020.6C,00002195
2020-03-25 11:29:56 r, 00.00m,0000563676Hz,0000000000c,0000000.000s, 021.2C,00002195
2020-03-25 11:39:54 r, 00.00m,0000563873Hz,0000000000c,0000000.000s, 022.2C,00002195
2020-03-25 11:49:55 r, 00.00m,0000563962Hz,0000000000c,0000000.000s, 022.8C,00002195
2020-03-25 11:59:55 r, 00.00m,0000563975Hz,0000000000c,0000000.000s, 023.5C,00002195
2020-03-25 12:09:54 r, 00.00m,0000564026Hz,0000000000c,0000000.000s, 023.5C,00002195
2020-03-25 12:19:54 r, 00.00m,0000564098Hz,0000000000c,0000000.000s, 023.8C,00002195
2020-03-25 12:29:54 r, 00.00m,0000564090Hz,0000000000c,0000000.000s, 024.1C,00002195
2020-03-25 12:39:55 r, 00.00m,0000564092Hz,0000000000c,0000000.000s, 024.4C,00002195
2020-03-25 12:49:54 r, 00.00m,0000564169Hz,0000000000c,0000000.000s, 025.1C,00002195
2020-03-25 12:59:55 r, 00.00m,0000564181Hz,0000000000c,0000000.000s, 025.1C,00002195
2020-03-25 13:09:54 r, 00.00m,0000564315Hz,0000000000c,0000000.000s, 025.1C,00002195
2020-03-25 13:19:55 r, 00.00m,0000564312Hz,0000000000c,0000000.000s, 025.7C,00002195
2020-03-25 13:29:55 r, 00.00m,0000564396Hz,0000000000c,0000000.000s, 025.7C,00002195
2020-03-25 13:39:54 r, 00.00m,0000564347Hz,0000000000c,0000000.000s, 025.7C,00002195
2020-03-25 13:49:55 r, 00.00m,0000564257Hz,0000000000c,0000000.000s, 025.7C,00002195
2020-03-25 13:59:56 r, 00.00m,0000564329Hz,0000000000c,0000000.000s, 025.7C,00002195
2020-03-25 14:09:54 r, 00.00m,0000564404Hz,0000000000c,0000000.000s, 026.1C,00002195
2020-03-25 14:19:54 r, 00.00m,0000564342Hz,0000000000c,0000000.000s, 026.1C,00002195
2020-03-25 14:29:55 r, 00.00m,0000564321Hz,0000000000c,0000000.000s, 026.1C,00002195
2020-03-25 14:39:54 r, 00.00m,0000564332Hz,0000000000c,0000000.000s, 026.1C,00002195
2020-03-25 14:49:56 r, 00.00m,0000564312Hz,0000000000c,0000000.000s, 025.7C,00002195
2020-03-25 14:59:54 r, 00.00m,0000564256Hz,0000000000c,0000000.000s, 025.7C,00002195
2020-03-25 15:09:54 r, 00.00m,0000564236Hz,0000000000c,0000000.000s, 025.4C,00002195
2020-03-25 15:19:55 r, 00.00m,0000564302Hz,0000000000c,0000000.000s, 025.7C,00002195
2020-03-25 15:29:55 r, 00.00m,0000564296Hz,0000000000c,0000000.000s, 025.7C,00002195
2020-03-25 15:39:54 r, 00.00m,0000564253Hz,0000000000c,0000000.000s, 025.7C,00002195
2020-03-25 15:49:55 r, 00.00m,0000564270Hz,0000000000c,0000000.000s, 026.1C,00002195
2020-03-25 15:59:54 r, 00.00m,0000564262Hz,0000000000c,0000000.000s, 026.1C,00002195
2020-03-25 16:09:54 r, 00.00m,0000564211Hz,0000000000c,0000000.000s, 026.1C,00002195
2020-03-25 16:19:55 r, 00.00m,0000564243Hz,0000000000c,0000000.000s, 026.1C,00002195
2020-03-25 16:29:54 r, 00.00m,0000564204Hz,0000000000c,0000000.000s, 026.1C,00002195
2020-03-25 16:39:54 r, 00.00m,0000564148Hz,0000000000c,0000000.000s, 025.7C,00002195
2020-03-25 16:49:56 r, 00.00m,0000563969Hz,0000000000c,0000000.000s, 025.7C,00002195
2020-03-25 16:59:55 r, 00.00m,0000563889Hz,0000000000c,0000000.000s, 025.7C,00002195
2020-03-25 17:09:55 r, 00.00m,0000563994Hz,0000000000c,0000000.000s, 025.1C,00002195
2020-03-25 17:19:54 r, 00.00m,0000563983Hz,0000000000c,0000000.000s, 024.8C,00002195
2020-03-25 17:29:55 r, 00.00m,0000563808Hz,0000000000c,0000000.000s, 024.4C,00002195
2020-03-25 17:39:54 r, 00.00m,0000563810Hz,0000000000c,0000000.000s, 023.8C,00002195
2020-03-25 17:49:55 r, 00.00m,0000563684Hz,0000000000c,0000000.000s, 023.5C,00002195
2020-03-25 17:59:54 r, 00.00m,0000563676Hz,0000000000c,0000000.000s, 022.8C,00002195
2020-03-25 18:09:54 r, 00.00m,0000563550Hz,0000000000c,0000000.000s, 022.5C,00002195
2020-03-25 18:19:54 r, 00.00m,0000563398Hz,0000000000c,0000000.000s, 021.9C,00002195
2020-03-25 18:29:56 r, 00.00m,0000563233Hz,0000000000c,0000000.000s, 021.2C,00002195
2020-03-25 18:39:54 r, 00.00m,0000563265Hz,0000000000c,0000000.000s, 020.9C,00002195
2020-03-25 18:49:56 r, 00.00m,0000563162Hz,0000000000c,0000000.000s, 020.3C,00002195
2020-03-25 18:59:55 r, 00.00m,0000530071Hz,0000000000c,0000000.000s, 019.9C,00002195
2020-03-25 19:09:54 r, 00.00m,0000447758Hz,0000000000c,0000000.000s, 019.0C,00002195
2020-03-25 19:19:56 r, 06.04m,0000343272Hz,0000000000c,0000000.000s, 018.0C,00002195
2020-03-25 19:29:55 r, 06.45m,0000233611Hz,0000000000c,0000000.000s, 017.4C,00002195
2020-03-25 19:39:54 r, 07.01m,0000140224Hz,0000000000c,0000000.000s, 016.7C,00002195
2020-03-25 19:49:54 r, 07.90m,0000061705Hz,0000000000c,0000000.000s, 016.1C,00002195
2020-03-25 19:59:54 r, 09.20m,0000018571Hz,0000000000c,0000000.000s, 015.7C,00002195
2020-03-25 20:09:54 r, 10.94m,0000003732Hz,0000000000c,0000000.000s, 015.4C,00002195
2020-03-25 20:19:55 r, 12.96m,0000000581Hz,0000000000c,0000000.000s, 015.1C,00002195
2020-03-25 20:29:56 r, 15.08m,0000000083Hz,0000005591c,0000000.012s, 015.1C,00002195
2020-03-25 20:39:54 r, 16.77m,0000000018Hz,0000026500c,0000000.058s, 014.8C,00002195
2020-03-25 20:49:55 r, 17.56m,0000000008Hz,0000054915c,0000000.119s, 014.8C,00002195
2020-03-25 20:59:55 r, 18.01m,0000000005Hz,0000083306c,0000000.181s, 014.5C,00002195
2020-03-25 21:09:54 r, 18.16m,0000000005Hz,0000095735c,0000000.208s, 014.5C,00002195
2020-03-25 21:19:57 r, 18.19m,0000000005Hz,0000097893c,0000000.212s, 014.5C,00002195
2020-03-25 21:29:55 r, 18.19m,0000000005Hz,0000098742c,0000000.214s, 014.1C,00002195
2020-03-25 21:39:54 r, 18.19m,0000000005Hz,0000097838c,0000000.212s, 014.1C,00002195
2020-03-25 21:49:57 r, 18.15m,0000000004Hz,0000094724c,0000000.206s, 014.1C,00002195
2020-03-25 21:59:54 r, 18.11m,0000000005Hz,0000091493c,0000000.199s, 013.8C,00002195
2020-03-25 22:09:54 r, 18.19m,0000000005Hz,0000098461c,0000000.214s, 013.8C,00002195
2020-03-25 22:19:55 r, 18.19m,0000000005Hz,0000097886c,0000000.212s, 013.8C,00002195
2020-03-25 22:29:55 r, 18.19m,0000000004Hz,0000098133c,0000000.213s, 013.8C,00002195
2020-03-25 22:39:55 r, 18.23m,0000000005Hz,0000101786c,0000000.221s, 013.5C,00002195
2020-03-25 22:49:54 r, 18.23m,0000000005Hz,0000101643c,0000000.221s, 013.5C,00002195
2020-03-25 22:59:57 r, 18.15m,0000000005Hz,0000095104c,0000000.206s, 013.5C,00002195
2020-03-25 23:09:54 r, 18.15m,0000000004Hz,0000095070c,0000000.206s, 013.5C,00002195
2020-03-25 23:19:57 r, 18.11m,0000000005Hz,0000091020c,0000000.198s, 013.2C,00002195
2020-03-25 23:29:54 r, 17.91m,0000000006Hz,0000076752c,0000000.167s, 013.2C,00002195
2020-03-25 23:39:56 r, 17.20m,0000000012Hz,0000039488c,0000000.086s, 013.5C,00002195
2020-03-25 23:49:54 r, 17.01m,0000000014Hz,0000033109c,0000000.072s, 013.5C,00002195
2020-03-25 23:59:56 r, 16.89m,0000000015Hz,0000029708c,0000000.064s, 013.5C,00002195
